Location: Ripley
(48.3812°N, 115.4473°W)
Time: 10:20:38
(UTC+00:00)

CAS-6 - Pass Details

Date: 27 June 2022
Orbit: 613 x 634 km, 97.9° (Epoch: 14 August)

Event Time Altitude Azimuth Distance (km) Brightness Sun altitude
Exits shadow 07:26:22 - 243° (WSW) 2,183 ? -18.2°
Reaches altitude 10° 07:27:28 10° 256° (WSW) 2,009 ? -18.2°
Maximum altitude 07:28:47 11° 273° (W) 1,933 ? -18.2°
Drops below altitude 10° 07:30:05 10° 291° (WNW) 2,010 ? -18.2°
Sets 07:33:59 0° 326° (NNW) 2,919 ? -18.3°
